Regional Weather Roundup
Issued by NWS Memphis, TN

Home | Current Version | Previous Version | Text Only | Print | Product List | Glossary On
Versions: 1 2 3 4 5 6 7 8 9 10 11 12 13 14 15 16 17 18 19 20 21 22 23 24 25 26 27 28 29 30 31 32 33 34 35 36 37 38 39 40 41 42 43 44 45 46 47 48 49 50
000
ASUS44 KMEG 231110
RWRMEG
MEMPHIS CWA HOURLY WEATHER ROUNDUP
NATIONAL WEATHER SERVICE MEMPHIS TN
600 AM CDT SAT JUL 23 2016

...WEST TENNESSEE...

CITY           SKY/WX    TMP DP  RH WIND       PRES   REMARKS
MEMPHIS INTL   CLOUDY    80  75  84 SE6       29.96F
NWS MEMPHIS      N/A     77 N/A N/A MISG        N/A
JACKSON        CLOUDY    75  73  93 CALM      29.98F
LEXINGTON      PTCLDY    73  73 100 CALM      29.99F
DYERSBURG      CLOUDY    73  72  94 MISG      29.98R
UNION CITY     MOCLDY    73  73 100 E3        29.99R
PARIS          PTCLDY    72  72 100 CALM      30.01R


...EASTERN ARKANSAS...

CITY           SKY/WX    TMP DP  RH WIND       PRES   REMARKS
JONESBORO      CLEAR     77  74  90 CALM      29.97R
WEST MEMPHIS   MOCLDY    78  73  84 VRB5      29.95R
BATESVILLE     CLEAR     73  72  94 W3        29.98S
NEWPORT        PTCLDY    77  77 100 CALM      29.98R
WALNUT RIDGE   CLEAR     75  72  88 CALM      29.97S
BLYTHEVILLE    MOCLDY    76  74  93 CALM      29.97R
SEARCY         CLEAR     77  76  96 MISG      29.98R
STUTTGART      CLEAR     81  73  78 S6        29.97R
PINE BLUFF     CLEAR     77  75  93 S3        29.97R
MONTICELLO     CLEAR     78  75  90 CALM      29.98R


...NORTH MISSISSIPPI...

CITY           SKY/WX    TMP DP  RH WIND       PRES   REMARKS
TUPELO         MOCLDY    75  71  87 CALM      30.01R
OXFORD         PTCLDY    75  72  88 NE5       30.02R
BATESVILLE     MOCLDY    75  73  93 CALM      29.99S
TUNICA         MOCLDY    75  73  94 E5        29.98S
CLARKSDALE     CLEAR     79  79 100 S5        29.97F
CORINTH        CLOUDY    75  73  94 CALM      29.99F
GREENWOOD      CLOUDY    75  71  87 SW5       29.99S
COLUMBUS       CLEAR     73  73 100 SW1       29.99S
GOLDEN TRIANGL CLEAR     72  66  83 CALM      30.00R FOG


...SOUTHEAST MISSOURI...

CITY           SKY/WX    TMP DP  RH WIND       PRES   REMARKS
KENNETT        MOCLDY    77  75  94 CALM      29.96S
WEST PLAINS    CLEAR     74  71  91 CALM      30.04S
POPLAR BLUFF   CLEAR     75  74  96 CALM      29.98S
CAPE GIRARDEAU FOG       74  73  97 CALM      29.98S VSB 1/4


...NORTHWEST ALABAMA...

CITY           SKY/WX    TMP DP  RH WIND       PRES   REMARKS
MUSCLE SHOALS  MOCLDY    74  72  93 N3        30.02R


...MIDDLE TENNESSEE...

CITY           SKY/WX    TMP DP  RH WIND       PRES   REMARKS
NASHVILLE      CLOUDY    76  72  87 CALM      30.00S
CLARKSVILLE    CLOUDY    73  71  93 SE3       29.99S
COLUMBIA       CLEAR    N/A N/A N/A CALM      30.00S


...WESTERN KENTUCKY...

CITY           SKY/WX    TMP DP  RH WIND       PRES   REMARKS
PADUCAH        CLOUDY    74  72  93 MISG      29.98R FOG
FORT CAMPBELL  MOCLDY    74  73  94 CALM      30.00R


...CENTRAL ARKANSAS...

CITY           SKY/WX    TMP DP  RH WIND       PRES   REMARKS
LITTLE ROCK    PTCLDY    80  76  87 CALM      29.97R


SKY/WX REPORTED AS FAIR MEANS FEW OR NO CLOUDS BELOW
12 THOUSAND FEET.




USA.gov is the U.S. government's official web portal to all federal, state and local government web resources and services.